• Join FlightAware (Why Join?)
  • Login
  • US Flag GB Flag 
21:08 EDT


 

Airport Tracker/Info


-or-


 

Live Flight TrackerFlight Track Log ✈ RPA3253 ✈ 22-Jun-2013 ✈ KCLT - KMSY

Flight Track Log - Related Links

Times and Time Zones

All times are in EDT time to prevent confusion due to time zone crossing. See the RPA3253 flight status page for this flight to view local times or setup timezone preferences in your user account.

Time Position Orientation Groundspeed Altitude Reporting Facility
EDT Latitude Longitude Course Direction KTS MPH feet Rate Location/Type
22:44 35.1892 -80.9536 251° West 162 186 1,600  Level Atlanta Center
22:45 35.1411 -80.9528 179° South 200 230 2,600 1,620 Climbing Atlanta Center
22:46 35.1114 -81.0122 239° Southwest 274 315 4,600 2,400 Climbing Atlanta Center
22:46 35.1067 -81.0733 265° West 282 325 6,100 2,820 Climbing Atlanta Center
22:47 35.1976 -81.2463 199° South  Level FlightAware Approximate
22:47 35.0983 -81.1600 263° West 302 348 9,000  Level Atlanta Center
22:48 35.0970 -81.2799 192° South  Level FlightAware Approximate
22:48 35.0881 -81.2644 263° West 319 367 11,000  Level Atlanta Center
22:49 35.0535 -81.3877 251° West  Level FlightAware Approximate
22:49 35.0614 -81.3769 254° West 333 383 13,100  Level Atlanta Center
22:50 35.0283 -81.4922 251° West 354 407 15,400 2,100 Climbing Atlanta Center
22:51 34.9931 -81.6072 250° West 360 414 17,400 1,860 Climbing Atlanta Center
22:52 34.9558 -81.7275 249° West 378 435 19,200 1,620 Climbing Atlanta Center
22:53 34.9181 -81.8325 246° West 378 435 20,700 1,680 Climbing Atlanta Center
22:54 34.8492 -81.9506 235° Southwest 387 445 22,600 1,740 Climbing Atlanta Center
22:55 34.7883 -82.0583 236° Southwest 392 451 24,200 1,740 Climbing Atlanta Center
22:56 34.7256 -82.1711 236° Southwest 403 464 26,100 1,740 Climbing Atlanta Center
22:57 34.6644 -82.2786 235° Southwest 403 464 27,700 1,500 Climbing Atlanta Center
22:58 34.6033 -82.3858 235° Southwest 403 464 29,100 1,140 Climbing Atlanta Center
22:59 34.5422 -82.4906 235° Southwest 403 464 30,000 420 Climbing Atlanta Center
23:00 34.4931 -82.5769 235° Southwest 403 464 30,000  Level Atlanta Center
23:01 34.4153 -82.7017 233° Southwest 395 455 30,000  Level Atlanta Center
23:02 34.3578 -82.8083 237° Southwest 388 447 30,000  Level Atlanta Center
23:03 34.2961 -82.9122 234° Southwest 380 437 30,000  Level Atlanta Center
23:04 34.2367 -83.0161 235° Southwest 380 437 30,000  Level Atlanta Center
23:05 34.1747 -83.1222 235° Southwest 380 437 30,000  Level Atlanta Center
23:06 34.1108 -83.2283 234° Southwest 386 444 30,000  Level Atlanta Center
23:07 34.0511 -83.3317 235° Southwest 386 444 30,000  Level Atlanta Center
23:08 33.9889 -83.4400 235° Southwest 386 444 30,000  Level Atlanta Center
23:09 33.9331 -83.5306 233° Southwest 386 444 30,000  Level Atlanta Center
23:10 33.8728 -83.6361 236° Southwest 386 444 30,000  Level Atlanta Center
23:11 33.8106 -83.7389 234° Southwest 391 450 30,000  Level Atlanta Center
23:12 33.7461 -83.8439 234° Southwest 386 444 30,000  Level Atlanta Center
23:13 33.6856 -83.9514 236° Southwest 391 450 30,000  Level Atlanta Center
23:14 33.6147 -84.0636 233° Southwest 391 450 30,000  Level Atlanta Center
23:15 33.5519 -84.1708 235° Southwest 391 450 30,000  Level Atlanta Center
23:16 33.4872 -84.2781 234° Southwest 391 450 30,000  Level Atlanta Center
23:17 33.4244 -84.3822 234° Southwest 391 450 30,000  Level Atlanta Center
23:18 33.3614 -84.4889 235° Southwest 391 450 30,000  Level Atlanta Center
23:19 33.3003 -84.5931 235° Southwest 391 450 30,000  Level Atlanta Center
23:20 33.2436 -84.6847 234° Southwest 391 450 30,000  Level Atlanta Center
23:21 33.1783 -84.7908 234° Southwest 391 450 30,000  Level Atlanta Center
23:22 33.1169 -84.8969 235° Southwest 396 456 30,000  Level Atlanta Center
23:23 33.0536 -85.0006 234° Southwest 396 456 30,000  Level Atlanta Center
23:24 32.9903 -85.1039 234° Southwest 396 456 30,000  Level Atlanta Center
23:25 32.9267 -85.1994 232° Southwest 385 443 30,000  Level Atlanta Center
23:26 32.8611 -85.3025 233° Southwest 391 450 30,000  Level Atlanta Center
23:27 32.7972 -85.4078 234° Southwest 396 456 30,000  Level Atlanta Center
23:28 32.7336 -85.5081 233° Southwest 396 456 30,000  Level Atlanta Center
23:29 32.6675 -85.6106 233° Southwest 396 456 30,000  Level Atlanta Center
23:30 32.6036 -85.7156 234° Southwest 396 456 30,000  Level Atlanta Center
23:31 32.5375 -85.8203 233° Southwest 396 456 30,000  Level Atlanta Center
23:32 32.4689 -85.9247 232° Southwest 401 461 30,000  Level Atlanta Center
23:33 32.4047 -86.0267 233° Southwest 406 467 30,000  Level Atlanta Center
23:34 32.3383 -86.1308 233° Southwest 406 467 30,000  Level Atlanta Center
23:35 32.2864 -86.2353 240° Southwest 398 458 30,000  Level Atlanta Center
23:36 32.2217 -86.3589 238° Southwest 393 452 30,000  Level Atlanta Center
23:37 32.1758 -86.4533 240° Southwest 393 452 30,000  Level Atlanta Center
23:38 32.1175 -86.5597 237° Southwest 388 447 30,000  Level Atlanta Center
23:39 32.0569 -86.6658 236° Southwest 388 447 30,000  Level Atlanta Center
23:40 31.9875 -86.7814 235° Southwest 388 447 30,000  Level Atlanta Center
23:41 31.9286 -86.8897 237° Southwest 393 452 30,000  Level Atlanta Center
23:43 31.8419 -87.0464 237° Southwest 387 445 30,000  Level Houston Center
23:44 31.7822 -87.1531 237° Southwest 390 449 30,000  Level Houston Center
23:45 31.7244 -87.2586 237° Southwest 387 445 30,000  Level Houston Center
23:46 31.6661 -87.3642 237° Southwest 386 444 30,000  Level Houston Center
23:47 31.6078 -87.4697 237° Southwest 387 445 30,000  Level Houston Center
23:48 31.5478 -87.5761 237° Southwest 389 448 30,000  Level Houston Center
23:49 31.4881 -87.6825 237° Southwest 391 450 30,000  Level Houston Center
23:50 31.4294 -87.7886 237° Southwest 390 449 30,000  Level Houston Center
23:51 31.3706 -87.8939 237° Southwest 388 447 30,000  Level Houston Center
23:52 31.2986 -88.0214 237° Southwest 393 452 30,000  Level Houston Center
23:53 31.2392 -88.1264 237° Southwest 390 449 30,000  Level Houston Center
23:54 31.1831 -88.2253 236° Southwest 394 453 30,000  Level Houston Center
23:55 31.1186 -88.3300 234° Southwest 398 458 30,000  Level Houston Center
23:56 31.0589 -88.4389 237° Southwest 398 458 30,000  Level Houston Center
23:57 30.9972 -88.5444 236° Southwest 394 453 30,000  Level Houston Center
23:58 30.9356 -88.6514 236° Southwest 394 453 30,000  Level Houston Center
23:59 30.8725 -88.7583 236° Southwest 401 461 30,000  Level Houston Center
00:00 30.8119 -88.8625 236° Southwest 394 453 30,000 -780 Level Houston Center
00:01 30.7522 -88.9683 237° Southwest 393 452 28,500 -1,740 Descending Houston Center
00:02 30.6925 -89.0722 236° Southwest 389 448 26,500 -1,920 Descending Houston Center
00:03 30.6322 -89.1756 236° Southwest 388 447 24,700 -1,860 Descending Houston Center
00:04 30.5975 -89.2383 237° Southwest 383 441 23,500 -1,920 Descending Houston Center
00:05 30.5150 -89.3803 236° Southwest 365 420 21,100 -1,860 Descending Houston Center
00:06 30.4581 -89.4769 236° Southwest 367 422 19,300 -1,800 Descending Houston Center
00:07 30.4114 -89.5758 241° Southwest 345 397 17,500 -1,860 Descending Houston Center
00:08 30.3644 -89.6694 240° Southwest 335 386 15,600 -1,860 Descending Houston Center
00:09 30.3203 -89.7594 240° Southwest 334 384 13,700 -1,860 Descending Houston Center
00:10 30.2767 -89.8531 242° Southwest 321 369 11,800 -1,860 Descending Houston Center
00:11 30.2356 -89.9383 241° Southwest 307 353 10,000 -2,040 Descending Houston Center
00:12 30.1956 -90.0203 241° Southwest 296 341 7,700 -1,740 Descending Houston Center
00:13 30.1581 -90.0978 241° Southwest 281 323 6,600 -1,680 Descending Houston Center
00:14 30.1269 -90.1617 241° Southwest 238 274 4,400 -2,220 Descending Houston Center
00:15 30.0978 -90.2192 240° Southwest 222 255 2,200 -1,740 Descending Houston Center
00:16 30.0506 -90.2319 193° South 188 216 1,000 -960 Descending Houston Center
00:17 30.0094 -90.2444 195° South 162 186 300 -720 Descending Houston Center
00:19 29.9833 -90.2500 235° Southwest  Level FlightAware Approximate
00:26 29.9934 -90.2580 235° Southwest  Level Estimated
00:27 29.9934 -90.2580 235° Southwest  Level Estimated